Oceanside, CA

8:44 PM PDT on September 24, 2017 (GMT -0700)
Oceanside Municipal

Weather History for KOKB - March, 2013

Change the Weather History Date:

Friday, March 29, 2013

  Actual Average Record
Temperature  
Mean Temperature 62 °F 57 °F  
Max Temperature 67 °F 66 °F 88 °F (2004)
Min Temperature 56 °F 47 °F 40 °F (2007)
Degree Days  
Heating Degree Days 3 8  
Month to date heating degree days 206 274  
Since 1 July heating degree days 1604 1682  
Cooling Degree Days 0 0  
Month to date cooling degree days 0 0  
Year to date cooling degree days 0 0  
Growing Degree Days 10 (Base 50)    
Moisture  
Dew Point 53 °F    
Average Humidity 77    
Maximum Humidity 86    
Minimum Humidity 67    
Precipitation  
Precipitation 0.00 in 0.04 in 0.12 in (2006)
Month to date precipitation 0.10 2.14  
Year to date precipitation 1.74 7.86  
Since 1 July precipitation 5.58  
Snow  
Snow 0.00 in - - ()
Month to date snowfall 0.0  
Year to date snowfall 0.0  
Snow Depth 0.00 in    
Sea Level Pressure  
Sea Level Pressure 30.08 in    
Wind  
Wind Speed 4 mph (WNW)    
Max Wind Speed 12 mph    
Max Gust Speed 16 mph    
Visibility 8 miles    
Events      
T = Trace of Precipitation, MM = Missing Value Source: NWS Daily Summary

Daily Weather History Graph

Daily Weather History Graph

Search for Another Location

Airport or City:

Trip Planner

Search our weather history database for the weather conditions in past years. The results will help you decide how hot, cold, wet, or windy it might be!

Date:

Astronomy

Mar. 29, 2013 Rise Set
Actual Time 6:40 AM PDT 7:07 PM PDT
Civil Twilight 6:15 AM PDT 7:32 PM PDT
Nautical Twilight 5:46 AM PDT 8:01 PM PDT
Astronomical Twilight 5:17 AM PDT 8:31 PM PDT
Moon 10:02 PM PDT (3/29) 8:02 AM PDT (3/29)
Length of Visible Light 13h 16m
Length of Day
12h 27m
Waning Gibbous, 93% of the Moon is Illuminated
Mar 29
Waning Gibbous
Apr 2
Last Quarter
Apr 10
New
Apr 18
First Quarter
Apr 25
Full

Hourly Weather History & Observations

Time (PDT) Temp. Dew Point Humidity Pressure Visibility Wind Dir Wind Speed Gust Speed Precip Events Conditions
12:52 AM 59.0 °F 54.0 °F 83% 30.07 in 10.0 mi Calm Calm - N/A   Overcast
1:52 AM 59.0 °F 54.0 °F 83% 30.07 in 10.0 mi Calm Calm - N/A   Overcast
2:52 AM 59.0 °F 54.0 °F 83% 30.06 in 10.0 mi Calm Calm - N/A   Overcast
3:52 AM 59.0 °F 53.1 °F 81% 30.05 in 10.0 mi East 4.6 mph - N/A   Overcast
4:52 AM 57.9 °F 53.1 °F 84% 30.05 in 8.0 mi NE 3.5 mph - N/A   Overcast
5:52 AM 57.0 °F 52.0 °F 83% 30.05 in 7.0 mi Calm Calm - N/A   Overcast
6:15 AM 57.2 °F 51.8 °F 82% 30.06 in 7.0 mi NE 4.6 mph - N/A   Overcast
6:52 AM 55.9 °F 52.0 °F 87% 30.08 in 6.0 mi Calm Calm - N/A   Overcast
7:38 AM 57.2 °F 53.6 °F 88% 30.08 in 5.0 mi Calm Calm - N/A   Overcast
7:52 AM 57.9 °F 53.1 °F 84% 30.08 in 5.0 mi Calm Calm - N/A   Haze
8:52 AM 59.0 °F 53.1 °F 81% 30.09 in 6.0 mi NE 3.5 mph - N/A   Haze
9:47 AM 62.6 °F 53.6 °F 72% 30.09 in 6.0 mi Calm Calm - N/A   Haze
9:52 AM 63.0 °F 53.1 °F 70% 30.09 in 6.0 mi Calm Calm - N/A   Haze
10:52 AM 62.1 °F 53.1 °F 72% 30.10 in 7.0 mi WSW 9.2 mph - N/A   Partly Cloudy
11:13 AM 62.6 °F 53.6 °F 72% 30.11 in 8.0 mi West 6.9 mph - N/A   Mostly Cloudy
11:23 AM 64.4 °F 53.6 °F 68% 30.10 in 8.0 mi WSW 5.8 mph - N/A   Scattered Clouds
11:52 AM 64.9 °F 54.0 °F 68% 30.10 in 8.0 mi WSW 9.2 mph - N/A   Scattered Clouds
12:52 PM 64.9 °F 54.0 °F 68% 30.09 in 8.0 mi WSW 8.1 mph - N/A   Mostly Cloudy
1:35 PM 64.4 °F 53.6 °F 68% 30.07 in 7.0 mi West 5.8 mph - N/A   Scattered Clouds
1:52 PM 64.0 °F 54.0 °F 70% 30.07 in 8.0 mi SW 5.8 mph - N/A   Clear
2:52 PM 62.1 °F 54.0 °F 75% 30.06 in 10.0 mi WSW 9.2 mph - N/A   Clear
3:52 PM 62.1 °F 53.1 °F 72% 30.06 in 10.0 mi West 5.8 mph - N/A   Partly Cloudy
4:52 PM 61.0 °F 53.1 °F 75% 30.05 in 10.0 mi SW 6.9 mph - N/A   Clear
5:49 PM 60.8 °F 53.6 °F 77% 30.06 in 10.0 mi West 4.6 mph - N/A   Mostly Cloudy
5:52 PM 59.0 °F 53.1 °F 81% 30.06 in 10.0 mi WSW 5.8 mph - N/A   Mostly Cloudy
6:52 PM 59.0 °F 53.1 °F 81% 30.08 in 10.0 mi WSW 8.1 mph - N/A   Overcast
7:52 PM 57.9 °F 53.1 °F 84% 30.10 in 10.0 mi Calm Calm - N/A   Overcast
8:52 PM 57.9 °F 52.0 °F 81% 30.12 in 10.0 mi NW 4.6 mph - N/A   Overcast
9:52 PM 57.9 °F 53.1 °F 84% 30.11 in 10.0 mi NE 3.5 mph - N/A   Overcast
10:24 PM 57.2 °F 51.8 °F 82% 30.11 in 10.0 mi ENE 3.5 mph - N/A   Partly Cloudy
10:52 PM 57.9 °F 52.0 °F 81% 30.10 in 10.0 mi NE 4.6 mph - N/A   Clear
11:52 PM 57.9 °F 53.1 °F 84% 30.08 in 10.0 mi NNE 4.6 mph - N/A   Clear